Time,TemperatureF,DewpointF,PressureIn,WindDirection,WindDirectionDegrees,WindSpeedMPH,WindSpeedGustMPH,Humidity,HourlyPrecipIn,Conditions,Clouds,dailyrainin,SoftwareType,DateUTC
2013-05-15 00:01:00,68.7,22.1,27.37,NW,309,7.0,0.0,17,0.00,,,-99.99,FreeWX-Wi 1.01,2013-05-15 05:01:00,
2013-05-15 00:06:00,68.7,22.1,27.37,NW,309,7.0,0.0,17,0.00,,,-99.99,FreeWX-Wi 1.01,2013-05-15 05:06:00,
2013-05-15 00:11:00,68.7,22.1,27.37,NW,309,7.0,0.0,17,0.00,,,-99.99,FreeWX-Wi 1.01,2013-05-15 05:11:00,
2013-05-15 00:16:00,68.0,21.6,27.37,NW,309,7.0,0.0,17,0.00,,,-99.99,FreeWX-Wi 1.01,2013-05-15 05:16:00,
2013-05-15 00:22:00,67.6,21.2,27.40,NW,309,7.0,0.0,17,0.00,,,-99.99,FreeWX-Wi 1.01,2013-05-15 05:22:00,
2013-05-15 00:27:00,67.8,21.4,27.40,NW,309,7.0,0.0,17,0.00,,,-99.99,FreeWX-Wi 1.01,2013-05-15 05:27:00,
2013-05-15 00:32:00,67.5,25.0,27.40,NW,309,7.0,0.0,20,0.00,,,-99.99,FreeWX-Wi 1.01,2013-05-15 05:32:00,
2013-05-15 00:37:00,67.3,24.8,27.40,NW,309,7.0,0.0,20,0.00,,,-99.99,FreeWX-Wi 1.01,2013-05-15 05:37:00,
2013-05-15 00:42:00,67.3,27.1,27.40,NW,309,7.0,0.0,22,0.00,,,-99.99,FreeWX-Wi 1.01,2013-05-15 05:42:00,
2013-05-15 00:47:00,67.1,28.0,27.40,NW,309,7.0,0.0,23,0.00,,,-99.99,FreeWX-Wi 1.01,2013-05-15 05:47:00,
2013-05-15 00:52:00,67.1,28.0,27.40,NW,309,7.0,0.0,23,0.00,,,-99.99,FreeWX-Wi 1.01,2013-05-15 05:52:00,
2013-05-15 00:57:00,66.9,27.9,27.40,NW,309,7.0,0.0,23,0.00,,,-99.99,FreeWX-Wi 1.01,2013-05-15 05:57:00,
2013-05-15 01:02:00,66.9,28.9,27.40,NW,309,7.0,0.0,24,0.00,,,-99.99,FreeWX-Wi 1.01,2013-05-15 06:02:00,
2013-05-15 01:07:00,66.9,28.9,27.40,NW,309,7.0,0.0,24,0.00,,,-99.99,FreeWX-Wi 1.01,2013-05-15 06:07:00,
2013-05-15 01:12:00,66.6,28.6,27.40,NW,309,7.0,0.0,24,0.00,,,-99.99,FreeWX-Wi 1.01,2013-05-15 06:12:00,
2013-05-15 01:17:00,66.6,28.6,27.40,NW,309,7.0,0.0,24,0.00,,,-99.99,FreeWX-Wi 1.01,2013-05-15 06:17:00,
2013-05-15 01:22:00,66.4,29.5,27.40,NW,309,7.0,0.0,25,0.00,,,-99.99,FreeWX-Wi 1.01,2013-05-15 06:22:00,
2013-05-15 01:28:00,65.8,30.0,27.40,NW,309,7.0,0.0,26,0.00,,,-99.99,FreeWX-Wi 1.01,2013-05-15 06:28:00,
2013-05-15 01:33:00,65.7,30.7,27.40,NW,309,7.0,0.0,27,0.00,,,-99.99,FreeWX-Wi 1.01,2013-05-15 06:33:00,
2013-05-15 01:38:00,65.3,31.3,27.40,NW,309,7.0,0.0,28,0.00,,,-99.99,FreeWX-Wi 1.01,2013-05-15 06:38:00,
2013-05-15 01:43:00,64.6,32.4,27.40,NW,309,7.0,0.0,30,0.00,,,-99.99,FreeWX-Wi 1.01,2013-05-15 06:43:00,
2013-05-15 01:48:00,63.9,33.4,27.40,NW,309,7.0,0.0,32,0.00,,,-99.99,FreeWX-Wi 1.01,2013-05-15 06:48:00,
2013-05-15 01:53:00,63.9,34.2,27.40,NW,309,7.0,0.0,33,0.00,,,-99.99,FreeWX-Wi 1.01,2013-05-15 06:53:00,
2013-05-15 01:58:00,63.5,33.8,27.40,NW,309,7.0,0.0,33,0.00,,,-99.99,FreeWX-Wi 1.01,2013-05-15 06:58:00,
2013-05-15 02:03:00,63.1,34.3,27.40,NW,309,7.0,0.0,34,0.00,,,-99.99,FreeWX-Wi 1.01,2013-05-15 07:03:00,
2013-05-15 02:08:00,63.1,34.3,27.40,NW,309,7.0,0.0,34,0.00,,,-99.99,FreeWX-Wi 1.01,2013-05-15 07:08:00,
2013-05-15 02:13:00,63.0,34.2,27.40,NW,309,7.0,0.0,34,0.00,,,-99.99,FreeWX-Wi 1.01,2013-05-15 07:13:00,
2013-05-15 02:19:00,62.1,34.2,27.40,NW,309,7.0,0.0,35,0.00,,,-99.99,FreeWX-Wi 1.01,2013-05-15 07:19:00,
2013-05-15 02:24:00,61.9,34.0,27.40,NW,309,7.0,0.0,35,0.00,,,-99.99,FreeWX-Wi 1.01,2013-05-15 07:24:00,
2013-05-15 02:29:00,61.7,34.5,27.40,NW,309,7.0,0.0,36,0.00,,,-99.99,FreeWX-Wi 1.01,2013-05-15 07:29:00,
2013-05-15 02:34:00,61.2,34.0,-100.00,NW,309,7.0,0.0,36,0.00,,,-99.99,FreeWX-Wi 1.01,2013-05-15 07:34:00,
2013-05-15 02:40:00,60.8,34.3,27.40,NW,309,7.0,0.0,37,0.00,,,-99.99,FreeWX-Wi 1.01,2013-05-15 07:40:00,
2013-05-15 02:45:00,60.6,34.2,27.40,NW,309,7.0,0.0,37,0.00,,,-99.99,FreeWX-Wi 1.01,2013-05-15 07:45:00,
2013-05-15 02:50:00,60.4,34.7,27.40,NW,309,7.0,0.0,38,0.00,,,-99.99,FreeWX-Wi 1.01,2013-05-15 07:50:00,
2013-05-15 02:55:00,60.4,34.7,27.40,NW,309,7.0,0.0,38,0.00,,,-99.99,FreeWX-Wi 1.01,2013-05-15 07:55:00,
2013-05-15 03:00:00,60.1,34.3,27.40,NW,309,7.0,0.0,38,0.00,,,-99.99,FreeWX-Wi 1.01,2013-05-15 08:00:00,
2013-05-15 03:05:00,59.5,34.5,27.40,NW,309,7.0,0.0,39,0.00,,,-99.99,FreeWX-Wi 1.01,2013-05-15 08:05:00,
2013-05-15 03:10:00,59.4,34.3,27.40,NW,309,7.0,0.0,39,0.00,,,-99.99,FreeWX-Wi 1.01,2013-05-15 08:10:00,
2013-05-15 03:15:00,59.4,34.3,27.40,NW,309,7.0,0.0,39,0.00,,,-99.99,FreeWX-Wi 1.01,2013-05-15 08:15:00,
2013-05-15 03:20:00,58.8,34.5,27.40,NW,309,7.0,0.0,40,0.00,,,-99.99,FreeWX-Wi 1.01,2013-05-15 08:20:00,
2013-05-15 03:25:00,58.6,35.1,27.40,NW,309,7.0,0.0,41,0.00,,,-99.99,FreeWX-Wi 1.01,2013-05-15 08:25:00,
2013-05-15 03:31:00,58.6,35.6,27.40,NW,309,7.0,0.0,42,0.00,,,-99.99,FreeWX-Wi 1.01,2013-05-15 08:31:00,
2013-05-15 03:36:00,58.5,35.4,27.40,NW,309,7.0,0.0,42,0.00,,,-99.99,FreeWX-Wi 1.01,2013-05-15 08:36:00,
2013-05-15 03:41:00,57.9,35.6,27.40,NW,309,7.0,0.0,43,0.00,,,-99.99,FreeWX-Wi 1.01,2013-05-15 08:41:00,
2013-05-15 03:46:00,58.1,35.8,27.40,NW,309,7.0,0.0,43,0.00,,,-99.99,FreeWX-Wi 1.01,2013-05-15 08:46:00,
2013-05-15 03:51:00,58.3,36.0,27.40,NW,309,7.0,0.0,43,0.00,,,-99.99,FreeWX-Wi 1.01,2013-05-15 08:51:00,
2013-05-15 03:56:00,58.1,36.3,27.40,NW,309,7.0,0.0,44,0.00,,,-99.99,FreeWX-Wi 1.01,2013-05-15 08:56:00,
2013-05-15 04:01:00,57.9,36.1,27.40,NW,309,7.0,0.0,44,0.00,,,-99.99,FreeWX-Wi 1.01,2013-05-15 09:01:00,
2013-05-15 04:06:00,57.9,36.1,27.40,NW,309,7.0,0.0,44,0.00,,,-99.99,FreeWX-Wi 1.01,2013-05-15 09:06:00,
2013-05-15 04:11:00,57.7,36.5,27.40,NW,309,7.0,0.0,45,0.00,,,-99.99,FreeWX-Wi 1.01,2013-05-15 09:11:00,
2013-05-15 04:16:00,57.6,36.3,27.40,NW,309,7.0,0.0,45,0.00,,,-99.99,FreeWX-Wi 1.01,2013-05-15 09:16:00,
2013-05-15 04:21:00,57.4,36.1,27.40,NW,309,7.0,0.0,45,0.00,,,-99.99,FreeWX-Wi 1.01,2013-05-15 09:21:00,
2013-05-15 04:26:00,57.4,36.1,27.40,NW,309,7.0,0.0,45,0.00,,,-99.99,FreeWX-Wi 1.01,2013-05-15 09:26:00,
2013-05-15 04:31:00,56.8,36.3,27.40,NW,309,7.0,0.0,46,0.00,,,-99.99,FreeWX-Wi 1.01,2013-05-15 09:31:00,
2013-05-15 04:36:00,56.8,36.9,27.43,NW,309,7.0,0.0,47,0.00,,,-99.99,FreeWX-Wi 1.01,2013-05-15 09:36:00,
2013-05-15 04:41:00,56.7,36.7,27.43,NW,309,7.0,0.0,47,0.00,,,-99.99,FreeWX-Wi 1.01,2013-05-15 09:41:00,
2013-05-15 04:47:00,56.5,36.5,27.43,NW,309,7.0,0.0,47,0.00,,,-99.99,FreeWX-Wi 1.01,2013-05-15 09:47:00,
2013-05-15 04:52:00,56.5,36.5,27.43,NW,309,7.0,0.0,47,0.00,,,-99.99,FreeWX-Wi 1.01,2013-05-15 09:52:00,
2013-05-15 04:57:00,56.1,36.7,27.43,NW,309,7.0,0.0,48,0.00,,,-99.99,FreeWX-Wi 1.01,2013-05-15 09:57:00,
2013-05-15 05:02:00,55.8,36.9,27.43,NW,309,7.0,0.0,49,0.00,,,-99.99,FreeWX-Wi 1.01,2013-05-15 10:02:00,
2013-05-15 05:07:00,55.4,36.5,27.43,NW,309,7.0,0.0,49,0.00,,,-99.99,FreeWX-Wi 1.01,2013-05-15 10:07:00,
2013-05-15 05:12:00,55.0,36.7,27.43,NW,309,7.0,0.0,50,0.00,,,-99.99,FreeWX-Wi 1.01,2013-05-15 10:12:00,
2013-05-15 05:17:00,54.9,37.0,27.43,NW,309,7.0,0.0,51,0.00,,,-99.99,FreeWX-Wi 1.01,2013-05-15 10:17:00,
2013-05-15 05:22:00,54.7,36.9,27.43,NW,309,7.0,0.0,51,0.00,,,-99.99,FreeWX-Wi 1.01,2013-05-15 10:22:00,
2013-05-15 05:27:00,54.5,36.7,27.43,NW,309,7.0,0.0,51,0.00,,,-99.99,FreeWX-Wi 1.01,2013-05-15 10:27:00,
2013-05-15 05:32:00,54.1,36.9,27.43,NW,309,7.0,0.0,52,0.00,,,-99.99,FreeWX-Wi 1.01,2013-05-15 10:32:00,
2013-05-15 05:37:00,54.0,36.7,27.43,NW,309,7.0,0.0,52,0.00,,,-99.99,FreeWX-Wi 1.01,2013-05-15 10:37:00,
2013-05-15 05:42:00,53.8,37.0,27.43,NW,309,7.0,0.0,53,0.00,,,-99.99,FreeWX-Wi 1.01,2013-05-15 10:42:00,
2013-05-15 05:47:00,53.4,37.2,27.43,NW,309,7.0,0.0,54,0.00,,,-99.99,FreeWX-Wi 1.01,2013-05-15 10:47:00,
2013-05-15 05:52:00,53.1,37.4,27.43,NW,309,7.0,0.0,55,0.00,,,-99.99,FreeWX-Wi 1.01,2013-05-15 10:52:00,
2013-05-15 05:57:00,53.6,37.8,27.43,NW,309,7.0,0.0,55,0.00,,,-99.99,FreeWX-Wi 1.01,2013-05-15 10:57:00,
2013-05-15 06:13:00,56.1,37.2,27.43,NW,309,7.0,0.0,49,0.00,,,-99.99,FreeWX-Wi 1.01,2013-05-15 11:13:00,
2013-05-15 06:18:00,56.3,37.4,27.43,NW,309,7.0,0.0,49,0.00,,,-99.99,FreeWX-Wi 1.01,2013-05-15 11:18:00,
2013-05-15 06:23:00,55.4,37.0,27.43,NW,309,7.0,0.0,50,0.00,,,-99.99,FreeWX-Wi 1.01,2013-05-15 11:23:00,
2013-05-15 06:28:00,54.9,37.0,27.43,NW,309,7.0,0.0,51,0.00,,,-99.99,FreeWX-Wi 1.01,2013-05-15 11:28:00,
2013-05-15 06:33:00,54.7,37.4,27.46,NW,309,7.0,0.0,52,0.00,,,-99.99,FreeWX-Wi 1.01,2013-05-15 11:33:00,
2013-05-15 06:44:00,55.4,37.0,27.46,NW,309,7.0,0.0,50,0.00,,,-99.99,FreeWX-Wi 1.01,2013-05-15 11:44:00,
2013-05-15 06:49:00,55.8,36.9,27.46,NW,309,7.0,0.0,49,0.00,,,-99.99,FreeWX-Wi 1.01,2013-05-15 11:49:00,
2013-05-15 06:54:00,55.9,37.6,27.46,NW,309,7.0,0.0,50,0.00,,,-99.99,FreeWX-Wi 1.01,2013-05-15 11:54:00,
2013-05-15 06:59:00,56.3,37.4,27.46,NW,309,7.0,0.0,49,0.00,,,-99.99,FreeWX-Wi 1.01,2013-05-15 11:59:00,
2013-05-15 07:04:00,56.8,37.4,27.49,NW,309,7.0,0.0,48,0.00,,,-99.99,FreeWX-Wi 1.01,2013-05-15 12:04:00,
2013-05-15 07:20:00,57.9,37.2,27.49,NW,309,7.0,7.0,46,0.00,,,-99.99,FreeWX-Wi 1.01,2013-05-15 12:20:00,
2013-05-15 07:36:00,60.3,36.5,27.49,NW,318,6.0,6.3,41,0.00,,,-99.99,FreeWX-Wi 1.01,2013-05-15 12:36:00,
2013-05-15 07:41:00,59.9,36.1,27.49,NW,318,6.0,6.0,41,0.00,,,-99.99,FreeWX-Wi 1.01,2013-05-15 12:41:00,
2013-05-15 07:46:00,59.9,36.7,27.49,NW,318,6.0,6.0,42,0.00,,,-99.99,FreeWX-Wi 1.01,2013-05-15 12:46:00,
2013-05-15 07:51:00,60.6,37.4,27.49,NW,320,6.0,8.1,42,0.00,,,-99.99,FreeWX-Wi 1.01,2013-05-15 12:51:00,
2013-05-15 07:56:00,61.0,35.8,27.49,NW,321,6.0,8.3,39,0.00,,,-99.99,FreeWX-Wi 1.01,2013-05-15 12:56:00,
2013-05-15 08:01:00,61.7,37.2,27.49,NW,324,5.0,8.1,40,0.00,,,-99.99,FreeWX-Wi 1.01,2013-05-15 13:01:00,
2013-05-15 08:07:00,61.9,36.0,27.52,NNW,328,5.0,8.3,38,0.00,,,-99.99,FreeWX-Wi 1.01,2013-05-15 13:07:00,
2013-05-15 08:12:00,64.6,37.0,27.52,NNW,329,5.0,8.7,36,0.00,,,-99.99,FreeWX-Wi 1.01,2013-05-15 13:12:00,
2013-05-15 08:17:00,66.7,37.4,27.52,NNW,332,5.0,9.6,34,0.00,,,-99.99,FreeWX-Wi 1.01,2013-05-15 13:17:00,
2013-05-15 08:22:00,67.1,37.0,27.52,NNW,334,6.0,8.3,33,0.00,,,-99.99,FreeWX-Wi 1.01,2013-05-15 13:22:00,
2013-05-15 08:27:00,66.9,36.9,27.52,NNW,338,6.0,10.5,33,0.00,,,-99.99,FreeWX-Wi 1.01,2013-05-15 13:27:00,
2013-05-15 08:32:00,66.4,36.3,27.52,NNW,338,6.0,10.5,33,0.00,,,-99.99,FreeWX-Wi 1.01,2013-05-15 13:32:00,
2013-05-15 08:37:00,66.2,36.3,27.52,NNW,338,6.0,8.1,33,0.00,,,-99.99,FreeWX-Wi 1.01,2013-05-15 13:37:00,
2013-05-15 08:42:00,65.7,35.8,27.52,NNW,338,6.0,0.0,33,0.00,,,-99.99,FreeWX-Wi 1.01,2013-05-15 13:42:00,
2013-05-15 08:47:00,64.4,35.4,27.52,NNW,338,6.0,0.0,34,0.00,,,-99.99,FreeWX-Wi 1.01,2013-05-15 13:47:00,
2013-05-15 08:53:00,63.9,34.9,27.49,NNW,338,6.0,0.0,34,0.00,,,-99.99,FreeWX-Wi 1.01,2013-05-15 13:53:00,
2013-05-15 08:58:00,64.8,35.8,27.49,NNW,338,6.0,0.0,34,0.00,,,-99.99,FreeWX-Wi 1.01,2013-05-15 13:58:00,
2013-05-15 09:08:00,66.2,36.3,27.49,NNW,338,6.0,0.0,33,0.00,,,-99.99,FreeWX-Wi 1.01,2013-05-15 14:08:00,
2013-05-15 09:13:00,66.6,35.1,27.49,NNW,338,6.0,0.0,31,0.00,,,-99.99,FreeWX-Wi 1.01,2013-05-15 14:13:00,
2013-05-15 09:18:00,67.5,34.2,27.52,NNW,338,6.0,0.0,29,0.00,,,-99.99,FreeWX-Wi 1.01,2013-05-15 14:18:00,
2013-05-15 09:24:00,68.0,32.7,27.52,NNW,338,6.0,0.0,27,0.00,,,-99.99,FreeWX-Wi 1.01,2013-05-15 14:24:00,
2013-05-15 09:29:00,68.7,34.3,27.52,NNW,343,6.0,10.5,28,0.00,,,-99.99,FreeWX-Wi 1.01,2013-05-15 14:29:00,
2013-05-15 09:34:00,68.0,32.7,27.52,NNW,347,7.0,10.5,27,0.00,,,-99.99,FreeWX-Wi 1.01,2013-05-15 14:34:00,
2013-05-15 09:39:00,69.3,33.8,27.52,North,354,7.0,12.8,27,0.00,,,-99.99,FreeWX-Wi 1.01,2013-05-15 14:39:00,
2013-05-15 09:55:00,69.3,32.0,27.52,North,3,7.0,8.7,25,0.00,,,-99.99,FreeWX-Wi 1.01,2013-05-15 14:55:00,
2013-05-15 10:00:00,69.6,31.3,27.52,North,4,7.0,8.7,24,0.00,,,-99.99,FreeWX-Wi 1.01,2013-05-15 15:00:00,
2013-05-15 10:05:00,70.3,31.8,27.55,North,4,6.0,8.3,24,0.00,,,-99.99,FreeWX-Wi 1.01,2013-05-15 15:05:00,
2013-05-15 10:10:00,70.5,32.0,27.55,North,2,6.0,8.7,24,0.00,,,-99.99,FreeWX-Wi 1.01,2013-05-15 15:10:00,
2013-05-15 10:15:00,70.9,32.4,27.55,North,358,6.0,8.3,24,0.00,,,-99.99,FreeWX-Wi 1.01,2013-05-15 15:15:00,
2013-05-15 10:21:00,71.6,31.8,27.55,North,357,5.0,8.1,23,0.00,,,-99.99,FreeWX-Wi 1.01,2013-05-15 15:21:00,
2013-05-15 10:26:00,72.0,32.2,27.55,North,356,5.0,8.7,23,0.00,,,-99.99,FreeWX-Wi 1.01,2013-05-15 15:26:00,
2013-05-15 10:31:00,71.4,31.6,27.55,North,357,5.0,8.1,23,0.00,,,-99.99,FreeWX-Wi 1.01,2013-05-15 15:31:00,
2013-05-15 10:36:00,72.0,32.2,27.55,North,359,5.0,8.7,23,0.00,,,-99.99,FreeWX-Wi 1.01,2013-05-15 15:36:00,
2013-05-15 10:41:00,72.7,31.6,27.55,North,0,5.0,6.7,22,0.00,,,-99.99,FreeWX-Wi 1.01,2013-05-15 15:41:00,
2013-05-15 10:46:00,72.7,31.6,27.55,North,358,5.0,6.7,22,0.00,,,-99.99,FreeWX-Wi 1.01,2013-05-15 15:46:00,
2013-05-15 10:51:00,71.4,31.6,27.55,North,3,5.0,7.6,23,0.00,,,-99.99,FreeWX-Wi 1.01,2013-05-15 15:51:00,
2013-05-15 11:02:00,71.2,31.5,27.55,North,7,5.0,8.3,23,0.00,,,-99.99,FreeWX-Wi 1.01,2013-05-15 16:02:00,
2013-05-15 11:12:00,73.8,32.5,27.55,North,0,5.0,8.3,22,0.00,,,-99.99,FreeWX-Wi 1.01,2013-05-15 16:12:00,
2013-05-15 11:17:00,74.3,32.9,27.55,North,2,5.0,5.4,22,0.00,,,-99.99,FreeWX-Wi 1.01,2013-05-15 16:17:00,
2013-05-15 11:33:00,73.9,31.5,27.55,North,4,5.0,5.4,21,0.00,,,-99.99,FreeWX-Wi 1.01,2013-05-15 16:33:00,
2013-05-15 11:38:00,73.6,31.3,27.55,North,6,5.0,6.3,21,0.00,,,-99.99,FreeWX-Wi 1.01,2013-05-15 16:38:00,
2013-05-15 11:43:00,73.6,31.3,27.55,North,7,5.0,8.3,21,0.00,,,-99.99,FreeWX-Wi 1.01,2013-05-15 16:43:00,
2013-05-15 11:48:00,73.9,31.5,27.58,North,8,4.0,4.0,21,0.00,,,-99.99,FreeWX-Wi 1.01,2013-05-15 16:48:00,
2013-05-15 11:53:00,73.9,31.5,27.58,North,9,4.0,4.0,21,0.00,,,-99.99,FreeWX-Wi 1.01,2013-05-15 16:53:00,
2013-05-15 11:58:00,74.1,31.6,27.58,North,9,4.0,6.3,21,0.00,,,-99.99,FreeWX-Wi 1.01,2013-05-15 16:58:00,
2013-05-15 12:09:00,74.1,31.6,27.58,North,9,4.0,0.0,21,0.00,,,-99.99,FreeWX-Wi 1.01,2013-05-15 17:09:00,
2013-05-15 12:14:00,74.3,31.8,27.58,North,8,4.0,8.7,21,0.00,,,-99.99,FreeWX-Wi 1.01,2013-05-15 17:14:00,
2013-05-15 12:30:00,71.2,30.4,27.58,North,7,4.0,0.0,22,0.00,,,-99.99,FreeWX-Wi 1.01,2013-05-15 17:30:00,
2013-05-15 12:36:00,71.8,30.9,-100.00,North,6,4.0,8.7,22,0.00,,,-99.99,FreeWX-Wi 1.01,2013-05-15 17:36:00,
2013-05-15 12:41:00,72.5,31.5,-100.00,North,5,4.0,8.1,22,0.00,,,-99.99,FreeWX-Wi 1.01,2013-05-15 17:41:00,
2013-05-15 12:46:00,73.2,32.0,27.58,North,4,5.0,11.0,22,0.00,,,-99.99,FreeWX-Wi 1.01,2013-05-15 17:46:00,
2013-05-15 12:57:00,71.8,30.9,27.61,North,10,6.0,10.1,22,0.00,,,-99.99,FreeWX-Wi 1.01,2013-05-15 17:57:00,
2013-05-15 13:02:00,71.8,30.9,27.61,North,10,6.0,8.7,22,0.00,,,-99.99,FreeWX-Wi 1.01,2013-05-15 18:02:00,
2013-05-15 13:07:00,72.0,31.1,27.58,North,6,6.0,6.0,22,0.00,,,-99.99,FreeWX-Wi 1.01,2013-05-15 18:07:00,
2013-05-15 13:23:00,73.8,31.5,27.58,North,7,4.0,5.4,21,0.00,,,-99.99,FreeWX-Wi 1.01,2013-05-15 18:23:00,
2013-05-15 13:28:00,73.4,31.1,-100.00,North,8,4.0,11.0,21,0.00,,,-99.99,FreeWX-Wi 1.01,2013-05-15 18:28:00,
2013-05-15 13:33:00,75.0,32.4,-100.00,North,7,4.0,11.0,21,0.00,,,-99.99,FreeWX-Wi 1.01,2013-05-15 18:33:00,
2013-05-15 13:38:00,73.8,31.5,-100.00,North,8,4.0,8.7,21,0.00,,,-99.99,FreeWX-Wi 1.01,2013-05-15 18:38:00,
2013-05-15 13:43:00,73.0,32.0,-100.00,North,7,4.0,5.8,22,0.00,,,-99.99,FreeWX-Wi 1.01,2013-05-15 18:43:00,
2013-05-15 13:48:00,71.4,30.6,27.58,North,8,4.0,8.1,22,0.00,,,-99.99,FreeWX-Wi 1.01,2013-05-15 18:48:00,
2013-05-15 13:53:00,69.8,30.4,-100.00,North,11,5.0,8.1,23,0.00,,,-99.99,FreeWX-Wi 1.01,2013-05-15 18:53:00,
2013-05-15 14:09:00,69.6,30.2,-100.00,NNE,22,4.0,5.4,23,0.00,,,-99.99,FreeWX-Wi 1.01,2013-05-15 19:09:00,
2013-05-15 14:14:00,69.6,30.2,-100.00,NNE,27,4.0,5.4,23,0.00,,,-99.99,FreeWX-Wi 1.01,2013-05-15 19:14:00,
2013-05-15 14:19:00,69.8,30.4,-100.00,NNE,31,4.0,10.1,23,0.00,,,-99.99,FreeWX-Wi 1.01,2013-05-15 19:19:00,
2013-05-15 14:24:00,69.8,31.5,27.55,NNE,31,4.0,8.3,24,0.00,,,-99.99,FreeWX-Wi 1.01,2013-05-15 19:24:00,
2013-05-15 14:40:00,68.2,33.8,27.52,NNE,33,4.0,12.3,28,0.00,,,-99.99,FreeWX-Wi 1.01,2013-05-15 19:40:00,
2013-05-15 14:45:00,68.0,34.5,27.52,NE,35,5.0,10.5,29,0.00,,,-99.99,FreeWX-Wi 1.01,2013-05-15 19:45:00,
2013-05-15 14:50:00,67.5,34.2,27.55,NE,35,5.0,10.5,29,0.00,,,-99.99,FreeWX-Wi 1.01,2013-05-15 19:50:00,
2013-05-15 15:01:00,68.4,34.0,27.55,NNE,30,5.0,8.7,28,0.00,,,-99.99,FreeWX-Wi 1.01,2013-05-15 20:01:00,
2013-05-15 15:06:00,68.4,34.0,27.52,NNE,26,6.0,10.1,28,0.00,,,-99.99,FreeWX-Wi 1.01,2013-05-15 20:06:00,
2013-05-15 15:16:00,69.8,33.4,27.52,NNE,18,6.0,8.3,26,0.00,,,-99.99,FreeWX-Wi 1.01,2013-05-15 20:16:00,
2013-05-15 15:32:00,72.3,32.4,27.55,NNE,22,5.0,5.4,23,0.00,,,-99.99,FreeWX-Wi 1.01,2013-05-15 20:32:00,
2013-05-15 15:37:00,72.7,33.8,27.52,NNE,24,5.0,5.4,24,0.00,,,-99.99,FreeWX-Wi 1.01,2013-05-15 20:37:00,
2013-05-15 15:42:00,72.9,32.9,27.52,NNE,27,4.0,7.2,23,0.00,,,-99.99,FreeWX-Wi 1.01,2013-05-15 20:42:00,
2013-05-15 15:47:00,73.8,33.6,27.52,NNE,31,4.0,8.1,23,0.00,,,-99.99,FreeWX-Wi 1.01,2013-05-15 20:47:00,
2013-05-15 15:58:00,75.4,33.8,27.55,NNE,29,4.0,8.7,22,0.00,,,-99.99,FreeWX-Wi 1.01,2013-05-15 20:58:00,
2013-05-15 16:03:00,75.4,33.8,27.55,NNE,26,4.0,6.7,22,0.00,,,-99.99,FreeWX-Wi 1.01,2013-05-15 21:03:00,
2013-05-15 16:13:00,75.0,33.6,27.55,NNE,15,4.0,8.3,22,0.00,,,-99.99,FreeWX-Wi 1.01,2013-05-15 21:13:00,
2013-05-15 16:18:00,74.7,33.3,27.55,North,2,4.0,8.1,22,0.00,,,-99.99,FreeWX-Wi 1.01,2013-05-15 21:18:00,
2013-05-15 16:23:00,76.1,35.6,27.55,NNW,346,4.0,5.8,23,0.00,,,-99.99,FreeWX-Wi 1.01,2013-05-15 21:23:00,
2013-05-15 16:28:00,76.1,33.3,27.55,NNW,340,4.0,8.1,21,0.00,,,-99.99,FreeWX-Wi 1.01,2013-05-15 21:28:00,
2013-05-15 16:39:00,76.3,33.4,27.55,NNW,334,4.0,6.3,21,0.00,,,-99.99,FreeWX-Wi 1.01,2013-05-15 21:39:00,
2013-05-15 16:44:00,76.6,33.8,27.55,NNW,331,3.0,5.4,21,0.00,,,-99.99,FreeWX-Wi 1.01,2013-05-15 21:44:00,
2013-05-15 16:49:00,77.2,34.2,27.55,NNW,332,3.0,5.4,21,0.00,,,-99.99,FreeWX-Wi 1.01,2013-05-15 21:49:00,
2013-05-15 16:54:00,77.2,34.2,-100.00,NNW,327,3.0,5.4,21,0.00,,,-99.99,FreeWX-Wi 1.01,2013-05-15 21:54:00,
2013-05-15 16:59:00,78.8,35.6,27.55,NW,323,3.0,8.3,21,0.00,,,-99.99,FreeWX-Wi 1.01,2013-05-15 21:59:00,
2013-05-15 17:04:00,78.3,35.1,27.55,WNW,298,3.0,5.8,21,0.00,,,-99.99,FreeWX-Wi 1.01,2013-05-15 22:04:00,
2013-05-15 17:20:00,77.9,34.9,27.55,West,270,3.0,5.4,21,0.00,,,-99.99,FreeWX-Wi 1.01,2013-05-15 22:20:00,
2013-05-15 17:31:00,78.4,34.0,27.55,WNW,288,3.0,5.4,20,0.00,,,-99.99,FreeWX-Wi 1.01,2013-05-15 22:31:00,
2013-05-15 17:36:00,79.5,34.9,27.55,WNW,303,3.0,5.8,20,0.00,,,-99.99,FreeWX-Wi 1.01,2013-05-15 22:36:00,
2013-05-15 17:41:00,80.2,35.4,27.55,NW,325,3.0,6.3,20,0.00,,,-99.99,FreeWX-Wi 1.01,2013-05-15 22:41:00,
2013-05-15 17:46:00,81.0,34.9,27.55,NNW,333,3.0,7.6,19,0.00,,,-99.99,FreeWX-Wi 1.01,2013-05-15 22:46:00,
2013-05-15 17:56:00,79.0,34.5,27.55,NNW,341,4.0,7.2,20,0.00,,,-99.99,FreeWX-Wi 1.01,2013-05-15 22:56:00,
2013-05-15 18:01:00,79.7,35.1,27.55,NW,325,4.0,4.0,20,0.00,,,-99.99,FreeWX-Wi 1.01,2013-05-15 23:01:00,
2013-05-15 18:12:00,83.1,36.5,27.58,WNW,301,3.0,6.3,19,0.00,,,-99.99,FreeWX-Wi 1.01,2013-05-15 23:12:00,
2013-05-15 18:22:00,85.3,34.0,27.58,WSW,258,4.0,5.8,16,0.00,,,-99.99,FreeWX-Wi 1.01,2013-05-15 23:22:00,
2013-05-15 18:28:00,86.2,34.7,27.58,WSW,252,3.0,4.9,16,0.00,,,-99.99,FreeWX-Wi 1.01,2013-05-15 23:28:00,
2013-05-15 18:33:00,85.6,34.3,27.58,WSW,244,3.0,5.4,16,0.00,,,-99.99,FreeWX-Wi 1.01,2013-05-15 23:33:00,
2013-05-15 18:38:00,81.7,35.4,27.58,WSW,237,3.0,5.8,19,0.00,,,-99.99,FreeWX-Wi 1.01,2013-05-15 23:38:00,
2013-05-15 18:43:00,81.3,35.1,27.58,WSW,244,3.0,5.4,19,0.00,,,-99.99,FreeWX-Wi 1.01,2013-05-15 23:43:00,
2013-05-15 18:48:00,78.8,34.3,27.58,WSW,251,2.0,4.9,20,0.00,,,-99.99,FreeWX-Wi 1.01,2013-05-15 23:48:00,
2013-05-15 18:53:00,81.3,35.1,27.58,West,259,2.0,6.3,19,0.00,,,-99.99,FreeWX-Wi 1.01,2013-05-15 23:53:00,
2013-05-15 18:58:00,79.3,34.7,27.58,West,259,3.0,5.8,20,0.00,,,-99.99,FreeWX-Wi 1.01,2013-05-15 23:58:00,
2013-05-15 19:03:00,77.9,33.6,27.58,West,259,3.0,6.3,20,0.00,,,-99.99,FreeWX-Wi 1.01,2013-05-16 00:03:00,
2013-05-15 19:08:00,77.9,33.6,27.58,WSW,255,3.0,5.8,20,0.00,,,-99.99,FreeWX-Wi 1.01,2013-05-16 00:08:00,
2013-05-15 19:13:00,76.3,33.4,27.58,WSW,250,3.0,4.5,21,0.00,,,-99.99,FreeWX-Wi 1.01,2013-05-16 00:13:00,
2013-05-15 19:18:00,75.9,33.1,27.58,WSW,247,3.0,4.9,21,0.00,,,-99.99,FreeWX-Wi 1.01,2013-05-16 00:18:00,
2013-05-15 19:29:00,73.4,32.2,27.58,WSW,243,3.0,3.0,22,0.00,,,-99.99,FreeWX-Wi 1.01,2013-05-16 00:29:00,
2013-05-15 19:34:00,72.5,31.5,27.58,WSW,245,3.0,4.9,22,0.00,,,-99.99,FreeWX-Wi 1.01,2013-05-16 00:34:00,
2013-05-15 19:39:00,72.0,32.2,27.58,WSW,243,3.0,6.3,23,0.00,,,-99.99,FreeWX-Wi 1.01,2013-05-16 00:39:00,
2013-05-15 19:44:00,71.4,31.6,27.58,WSW,241,3.0,5.8,23,0.00,,,-99.99,FreeWX-Wi 1.01,2013-05-16 00:44:00,
2013-05-15 19:49:00,70.7,32.2,27.55,WSW,240,3.0,4.9,24,0.00,,,-99.99,FreeWX-Wi 1.01,2013-05-16 00:49:00,
2013-05-15 19:54:00,70.2,31.6,27.55,WSW,239,3.0,3.6,24,0.00,,,-99.99,FreeWX-Wi 1.01,2013-05-16 00:54:00,
2013-05-15 19:59:00,69.4,32.0,27.55,WSW,239,3.0,3.0,25,0.00,,,-99.99,FreeWX-Wi 1.01,2013-05-16 00:59:00,
2013-05-15 20:04:00,68.9,31.6,27.55,WSW,239,3.0,3.1,25,0.00,,,-99.99,FreeWX-Wi 1.01,2013-05-16 01:04:00,
2013-05-15 20:20:00,67.8,31.6,27.52,WSW,239,2.0,0.0,26,0.00,,,-99.99,FreeWX-Wi 1.01,2013-05-16 01:20:00,
2013-05-15 20:25:00,67.6,31.5,27.52,WSW,239,2.0,2.7,26,0.00,,,-99.99,FreeWX-Wi 1.01,2013-05-16 01:25:00,
2013-05-15 20:30:00,67.3,31.3,27.52,WSW,239,2.0,4.0,26,0.00,,,-99.99,FreeWX-Wi 1.01,2013-05-16 01:30:00,
2013-05-15 20:35:00,67.1,31.1,27.52,WSW,239,2.0,3.6,26,0.00,,,-99.99,FreeWX-Wi 1.01,2013-05-16 01:35:00,
2013-05-15 20:41:00,67.1,31.1,27.52,WSW,239,2.0,2.7,26,0.00,,,-99.99,FreeWX-Wi 1.01,2013-05-16 01:41:00,
2013-05-15 20:46:00,66.7,30.7,27.52,WSW,239,1.0,0.0,26,0.00,,,-99.99,FreeWX-Wi 1.01,2013-05-16 01:46:00,
2013-05-15 20:51:00,66.4,29.5,27.52,WSW,239,1.0,0.0,25,0.00,,,-99.99,FreeWX-Wi 1.01,2013-05-16 01:51:00,
2013-05-15 20:56:00,66.7,29.8,27.52,WSW,239,1.0,0.0,25,0.00,,,-99.99,FreeWX-Wi 1.01,2013-05-16 01:56:00,
2013-05-15 21:07:00,66.0,32.0,27.52,North,-999,0.0,0.0,28,0.00,,,-99.99,FreeWX-Wi 1.01,2013-05-16 02:07:00,
2013-05-15 21:12:00,65.5,31.5,27.52,North,-999,0.0,0.0,28,0.00,,,-99.99,FreeWX-Wi 1.01,2013-05-16 02:12:00,
2013-05-15 21:27:00,63.9,31.8,27.52,SW,233,2.0,6.3,30,0.00,,,-99.99,FreeWX-Wi 1.01,2013-05-16 02:27:00,
2013-05-15 21:33:00,63.9,32.7,27.52,SW,230,2.0,5.4,31,0.00,,,-99.99,FreeWX-Wi 1.01,2013-05-16 02:33:00,
2013-05-15 21:43:00,63.3,33.8,27.49,SW,226,4.0,4.0,33,0.00,,,-99.99,FreeWX-Wi 1.01,2013-05-16 02:43:00,
2013-05-15 21:53:00,63.1,33.6,27.49,SW,226,4.0,4.9,33,0.00,,,-99.99,FreeWX-Wi 1.01,2013-05-16 02:53:00,
2013-05-15 21:59:00,62.6,33.1,27.49,SW,225,4.0,4.0,33,0.00,,,-99.99,FreeWX-Wi 1.01,2013-05-16 02:59:00,
2013-05-15 22:04:00,62.2,33.4,27.49,SW,225,4.0,0.0,34,0.00,,,-99.99,FreeWX-Wi 1.01,2013-05-16 03:04:00,
2013-05-15 22:14:00,61.5,32.9,27.49,SW,225,4.0,0.0,34,0.00,,,-99.99,FreeWX-Wi 1.01,2013-05-16 03:14:00,
2013-05-15 22:19:00,61.5,32.9,27.49,SW,224,4.0,4.0,34,0.00,,,-99.99,FreeWX-Wi 1.01,2013-05-16 03:19:00,
2013-05-15 22:24:00,61.3,32.7,27.49,SW,224,4.0,4.0,34,0.00,,,-99.99,FreeWX-Wi 1.01,2013-05-16 03:24:00,
2013-05-15 22:29:00,61.5,32.9,27.49,SW,224,4.0,0.0,34,0.00,,,-99.99,FreeWX-Wi 1.01,2013-05-16 03:29:00,
2013-05-15 22:34:00,61.7,33.1,27.49,SW,224,4.0,0.0,34,0.00,,,-99.99,FreeWX-Wi 1.01,2013-05-16 03:34:00,
2013-05-15 22:39:00,61.7,33.1,27.49,SW,222,4.0,4.0,34,0.00,,,-99.99,FreeWX-Wi 1.01,2013-05-16 03:39:00,
2013-05-15 22:45:00,61.5,33.6,27.49,SW,221,4.0,4.0,35,0.00,,,-99.99,FreeWX-Wi 1.01,2013-05-16 03:45:00,
2013-05-15 22:50:00,61.2,34.0,27.49,SW,221,4.0,0.0,36,0.00,,,-99.99,FreeWX-Wi 1.01,2013-05-16 03:50:00,
2013-05-15 23:06:00,60.6,33.4,27.46,SW,221,4.0,0.0,36,0.00,,,-99.99,FreeWX-Wi 1.01,2013-05-16 04:06:00,
2013-05-15 23:11:00,60.1,33.1,27.46,SW,221,4.0,0.0,36,0.00,,,-99.99,FreeWX-Wi 1.01,2013-05-16 04:11:00,
2013-05-15 23:16:00,60.1,33.1,27.46,SW,221,4.0,0.0,36,0.00,,,-99.99,FreeWX-Wi 1.01,2013-05-16 04:16:00,
2013-05-15 23:21:00,60.1,33.1,27.46,SW,221,4.0,0.0,36,0.00,,,-99.99,FreeWX-Wi 1.01,2013-05-16 04:21:00,
2013-05-15 23:26:00,60.1,33.8,27.46,SW,221,4.0,0.0,37,0.00,,,-99.99,FreeWX-Wi 1.01,2013-05-16 04:26:00,
2013-05-15 23:31:00,59.7,34.2,27.46,SW,221,4.0,0.0,38,0.00,,,-99.99,FreeWX-Wi 1.01,2013-05-16 04:31:00,
2013-05-15 23:36:00,59.4,33.1,27.46,SW,221,4.0,0.0,37,0.00,,,-99.99,FreeWX-Wi 1.01,2013-05-16 04:36:00,
2013-05-15 23:41:00,59.4,33.1,27.46,SW,221,4.0,0.0,37,0.00,,,-99.99,FreeWX-Wi 1.01,2013-05-16 04:41:00,
2013-05-15 23:46:00,59.2,32.9,27.46,SW,221,4.0,0.0,37,0.00,,,-99.99,FreeWX-Wi 1.01,2013-05-16 04:46:00,
2013-05-15 23:51:00,59.0,32.7,27.46,SW,221,4.0,0.0,37,0.00,,,-99.99,FreeWX-Wi 1.01,2013-05-16 04:51:00,
2013-05-15 23:56:00,58.5,32.9,27.46,SW,221,4.0,0.0,38,0.00,,,-99.99,FreeWX-Wi 1.01,2013-05-16 04:56:00,